RH
82 86 85 87 96 94 92 96 100 65 52 62 91 93 33 32 19 21 27 26 28 31 31 27 26 23 22 26 27 31 34 71 48 45 33 32 33 100 100 100 100 100 98 90
83 86 87 89 94 89 97 96 92 73 73 98 92 45 34 23 22 24 29 31 29 28 33 52 24 26 30 31 29 36 34 66 71 45 41 35 40 44 64 100 100 98 91 97
83 87 89 92 94 94 97 97 99 92 64 49 54 44 37 30 23 24 25 29 29 32 33 28 30 33 35 32 28 49 36 49 85 60 45 51 83 47 47 71 100 100 93 100
84 88 90 92 92 97 92 96 88 73 93 66 48 42 33 32 30 26 27 32 32 35 67 31 30 28 33 29 53 32 32 76 34 23 24 24 42 35 44 83 76 89 98 93
85 90 87 92 92 96 96 98 69 60 63 46 46 56 42 33 28 31 32 36 30 33 59 35 42 31 29 32 34 31 29 40 30 37 27 28 30 27 29 40 56 86 67 84
85 91 88 94 91 93 97 62 41 50 61 52 52 51 35 31 31 30 26 30 35 40 29 21 22 23 23 25 32 34 34 40 37 36 29 39 55 59 30 30 39 48 58 100
86 90 88 93 93 86 90 58 40 73 70 52 44 38 30 30 35 40 29 29 35 25 18 21 22 24 24 27 27 27 39 36 33 36 35 73 38 18 27 27 26 29 33 29
87 90 90 94 92 94 67 48 47 67 70 41 37 35 32 31 36 35 33 30 27 25 26 36 35 36 31 28 27 26 25 33 48 55 37 26 21 24 28 30 28 20 22 21
91 86 92 92 91 88 60 55 45 62 71 48 30 38 34 45 44 40 43 30 29 28 26 37 36 37 25 31 28 22 24 30 56 50 48 40 31 17 18 22 46 20 18 19
88 93 94 89 89 87 76 57 60 48 71 34 33 39 44 36 39 46 42 37 35 30 41 54 38 34 20 37 37 41 42 49 85 80 84 50 21 18 21 41 44 20 18 20
95 94 93 90 88 84 67 71 58 50 46 37 32 30 39 37 39 54 45 47 49 43 67 56 43 39 34 31 23 35 44 50 63 62 80 92 20 24 32 30 23 20 21 22
94 95 93 89 88 84 66 57 41 39 39 39 35 29 26 27 29 38 47 42 44 72 73 65 44 51 48 41 46 23 43 41 56 50 72 39 24 27 25 20 22 23 23 21
93 92 90 91 87 84 66 48 46 43 52 44 38 41 33 27 29 34 39 37 33 40 42 56 50 47 38 46 37 38 28 25 42 43 32 29 29 24 20 19 21 19 20 21
90 91 88 91 80 73 68 79 46 41 42 68 54 36 42 30 29 30 29 34 35 37 31 40 39 37 29 32 26 32 26 26 32 34 25 23 22 23 22 18 19 19 19 21
93 92 87 88 82 74 71 80 48 47 54 69 53 42 37 32 31 31 36 40 44 32 34 37 35 25 30 28 30 29 20 27 36 38 24 26 17 22 21 20 19 20 22 23
89 90 87 81 78 70 69 96 77 34 33 45 59 41 42 35 32 34 36 35 32 28 26 27 24 34 33 30 26 16 14 19 19 21 16 19 18 19 14 19 18 18 21 22
82 85 88 84 84 88 92 83 73 54 38 48 54 52 40 36 36 38 37 37 32 28 28 30 27 30 32 27 26 13 11 12 15 14 16 22 18 19 15 17 16 24 18 22
91 92 90 84 81 84 78 65 63 64 33 34 58 61 52 43 43 49 33 38 32 33 31 33 31 34 33 36 18 15 10 9 13 15 16 18 15 16 16 17 17 21 22 24
89 88 88 88 94 96 87 68 70 52 41 64 52 59 70 42 39 43 40 33 47 38 37 32 29 32 42 30 19 13 12 14 12 12 15 18 18 18 18 21 22 24 24 28
82 86 94 100 96 81 77 57 71 46 36 40 48 42 65 42 51 49 46 42 41 51 38 30 44 40 23 18 19 15 15 15 17 21 24 23 23 22 22 24 24 23 24 30
94 98 97 87 82 81 90 90 76 50 48 42 44 47 50 39 51 51 41 51 42 46 38 45 39 40 30 20 20 17 16 17 17 18 22 22 22 25 27 28 28 27 27 34
81 70 72 73 88 94 90 77 57 46 46 46 45 44 43 39 36 44 47 44 43 46 40 50 58 36 22 21 25 21 19 19 19 19 21 24 23 26 28 30 31 31 32 63
51 75 91 88 82 99 87 99 63 74 49 44 46 58 44 42 37 52 48 73 61 34 62 66 45 31 26 28 27 30 27 22 23 20 24 27 28 28 31 32 34 41 46 56
76 84 100 87 94 66 55 53 51 45 51 49 47 50 49 48 52 58 74 47 46 59 72 56 45 29 28 33 35 34 34 27 27 25 27 32 39 44 62 93 83 92 68 97
65 63 90 68 50 46 46 44 45 43 47 45 49 46 47 53 78 48 49 62 68 48 44 53 42 30 33 34 39 36 37 51 35 30 31 86 84 72 85 62 60 56 100 100
37 38 57 53 66 81 79 59 60 47 45 44 34 45 54 52 47 49 75 43 56 52 40 38 37 33 32 35 40 40 39 36 33 30 36 52 81 72 51 58 58 100 91 100
42 66 53 54 58 75 65 55 54 44 46 69 46 74 47 42 54 57 40 54 54 43 44 42 35 35 38 40 43 57 44 38 33 34 36 41 44 40 45 53 53 58 60 92
Wind_Speed
25 22 22 25 21 40 21 8 7 8 12 12 9 9 15 12 18 8 4 8 7 14 13 9 6 8 5 11 12 11 4 3 7 6 5 1 2 4 2 4 4 1 4 3
25 22 20 19 28 38 8 10 6 0 3 11 14 20 15 13 17 14 10 7 5 9 11 6 8 10 9 10 10 9 8 5 5 6 6 7 7 7 5 1 1 9 4 1
27 22 18 16 39 26 9 7 8 2 2 9 24 24 18 14 16 10 8 12 12 14 11 7 12 12 9 10 7 6 3 3 3 1 4 8 5 11 10 5 4 4 9 3
30 26 24 19 41 22 9 4 9 9 15 17 25 21 21 23 16 8 12 7 10 15 7 10 10 14 15 10 10 8 5 5 10 6 1 4 8 9 12 10 9 6 1 4
28 26 27 21 39 22 7 7 13 8 19 25 27 20 22 26 17 16 17 12 15 12 9 8 15 17 13 9 12 10 7 3 7 5 6 8 12 13 14 16 15 11 15 15
26 23 29 20 39 20 6 6 16 12 21 26 21 18 24 24 17 8 14 14 16 10 11 5 15 15 10 4 13 11 9 4 5 3 3 7 12 17 19 15 10 14 12 7
28 23 27 26 38 22 6 7 13 13 20 18 20 24 24 24 18 12 14 14 13 11 15 18 14 10 6 9 10 8 8 8 3 3 3 5 1 3 15 14 12 15 14 11
30 27 19 37 36 14 6 12 14 9 17 20 23 27 23 22 11 15 18 14 16 19 19 15 11 7 5 8 9 9 7 7 3 3 8 12 10 10 9 9 12 15 14 12
28 27 26 39 32 19 10 6 7 8 16 19 26 22 23 18 16 17 12 10 18 19 8 6 6 7 7 9 9 11 9 7 4 5 5 5 4 7 10 2 10 12 11 8
23 30 36 36 25 8 6 5 8 11 7 21 25 19 22 18 16 9 17 17 16 15 5 6 6 5 9 10 11 13 10 8 9 7 5 8 1 11 8 4 3 9 7 6
32 35 38 31 23 14 6 6 1 6 5 19 24 21 23 19 14 13 21 12 8 9 7 6 4 4 7 6 8 12 13 9 6 9 7 10 10 12 7 2 4 6 6 6
36 39 38 30 24 14 9 7 7 10 9 16 13 11 7 6 12 13 19 5 20 6 7 5 4 4 6 9 6 13 9 9 6 9 6 5 14 5 13 4 6 6 6 5
38 38 37 28 19 9 8 13 12 12 13 12 10 11 8 5 10 17 10 4 12 9 6 5 3 5 7 7 7 11 11 14 5 5 11 13 11 17 7 9 8 7 7 5
38 35 35 26 24 17 9 7 6 11 9 8 7 5 6 2 13 10 6 12 7 10 7 4 4 4 6 6 2 11 7 13 14 11 12 5 12 16 17 12 10 9 6 6
37 33 32 29 26 27 17 8 7 7 6 7 11 13 7 7 9 9 12 14 13 8 6 4 5 1 4 2 3 9 11 10 12 6 8 10 3 14 16 17 14 11 10 9
37 35 32 31 29 23 7 7 5 7 9 10 8 8 7 9 10 12 12 10 9 6 4 6 2 4 4 4 7 10 13 18 16 12 5 8 5 5 11 17 16 12 9 9
37 36 28 25 19 7 5 6 6 7 7 7 8 7 6 13 11 8 7 6 4 3 4 3 5 6 4 5 8 5 8 11 16 13 10 9 9 8 6 11 12 10 10 10
34 35 31 30 29 13 7 6 5 5 5 5 7 7 8 9 9 5 3 5 5 4 4 0 6 6 5 8 12 17 15 10 10 12 11 10 8 11 9 10 10 9 11 10
34 30 23 11 8 5 2 2 6 1 4 5 5 11 7 7 7 7 4 3 4 3 5 6 4 7 11 11 15 13 12 13 14 14 13 12 10 10 11 11 11 12 11 11
28 10 8 5 2 6 8 7 4 4 3 2 6 9 7 13 10 6 6 4 4 4 6 3 6 11 17 15 16 11 10 12 10 12 16 15 14 12 12 12 11 11 11 12
5 5 5 5 4 3 5 4 4 4 4 4 6 10 14 11 10 8 4 5 5 4 5 5 5 6 10 20 22 18 14 10 14 13 12 15 13 13 12 12 11 11 11 12
9 14 8 3 4 4 6 5 4 5 7 6 13 14 9 9 7 4 5 5 4 5 5 4 6 6 12 9 8 13 17 15 14 15 13 13 13 13 13 12 12 11 11 9
9 7 6 3 2 6 7 9 5 6 7 12 15 13 6 5 2 4 4 5 5 2 4 6 7 4 3 4 7 8 9 16 16 15 12 12 14 12 12 12 10 10 10 9
5 5 6 2 4 5 4 8 9 8 11 16 13 9 4 4 4 4 5 4 4 5 6 8 7 8 8 6 6 7 8 13 17 16 14 15 13 12 6 6 7 7 9 7
4 4 5 3 5 7 7 9 9 11 14 14 12 6 5 5 4 4 4 6 6 7 7 4 1 1 5 8 7 7 10 10 14 15 15 8 8 9 6 7 9 9 6 7
3 4 5 8 9 6 5 9 10 12 13 12 5 5 5 5 5 6 9 7 8 5 5 2 4 4 4 6 7 7 10 14 14 14 14 12 8 9 10 9 9 6 8 7
3 3 4 4 6 7 8 9 11 12 13 7 5 7 6 7 5 6 7 6 3 4 2 2 4 4 6 7 8 7 11 14 13 13 13 11 10 10 11 11 10 8 8 5
Wind_Direction
205 206 204 214 221 156 153 141 115 172 180 167 170 178 177 153 159 144 137 153 148 158 151 166 140 168 154 171 164 159 78 153 176 166 116 266 193 160 217 265 164 244 300 273
201 203 211 213 198 160 134 123 112 312 250 168 173 181 151 169 163 168 160 138 156 137 155 129 144 127 118 163 187 153 171 159 146 178 185 196 230 198 154 177 276 209 271 83
198 200 216 246 182 161 106 124 118 83 230 196 170 169 164 155 177 149 144 128 144 140 141 133 156 138 158 168 142 36 170 201 261 315 54 134 193 198 184 193 227 168 235 256
198 193 204 240 174 177 131 132 149 153 177 182 182 162 168 155 156 161 156 158 160 148 144 150 162 154 142 172 134 183 220 196 226 247 233 233 211 207 207 202 240 241 43 258
190 194 203 262 178 171 89 144 150 180 155 165 170 178 181 169 153 153 180 167 163 152 161 171 168 156 167 168 173 184 201 218 221 242 225 247 250 240 228 219 231 248 267 273
183 193 195 247 167 164 111 231 139 145 159 167 174 174 178 174 144 176 170 164 155 165 170 154 150 162 158 168 173 186 175 205 205 250 170 322 280 239 234 223 222 226 251 233
186 193 205 225 163 174 119 188 151 138 169 173 167 173 170 166 168 143 167 152 151 114 110 104 111 112 141 155 173 180 190 211 189 277 166 251 359 333 204 231 232 221 237 249
183 195 235 195 164 166 188 176 158 145 163 159 167 175 169 153 144 145 144 153 121 142 135 119 122 140 141 177 173 187 198 203 211 230 223 281 219 212 191 212 251 234 234 233
187 195 218 166 155 182 182 152 148 133 148 181 164 160 157 144 137 135 99 117 152 163 151 158 181 174 173 169 178 198 199 234 203 216 258 260 48 125 176 149 272 219 210 221
189 208 173 152 140 143 133 115 129 130 126 165 165 169 153 142 134 125 139 149 158 185 162 187 194 171 170 163 182 186 188 197 213 220 276 289 171 142 147 204 30 159 191 208
185 166 157 146 136 154 156 101 1 166 121 140 165 153 168 156 143 150 152 139 189 183 189 206 186 189 189 183 186 176 183 186 185 215 226 249 167 147 209 87 141 181 194 210
158 149 144 144 137 167 105 85 98 81 97 132 105 157 171 189 157 131 170 135 166 151 169 208 169 200 163 197 188 178 200 207 176 205 220 240 180 203 208 208 199 196 210 195
142 144 140 131 126 151 169 130 120 99 107 97 117 108 63 68 123 148 162 125 164 168 153 161 195 202 181 188 223 180 236 204 226 195 239 221 212 222 202 214 220 197 200 215
135 138 131 124 127 121 107 97 140 114 110 100 106 157 61 130 132 163 173 149 151 148 186 179 183 217 220 207 268 205 190 184 213 241 244 214 229 220 224 219 209 221 213 224
132 123 117 117 109 99 83 76 45 51 98 124 127 104 82 132 150 134 124 146 153 175 183 202 211 125 192 217 281 232 203 192 202 215 220 210 241 213 220 218 211 215 226 219
122 116 120 120 118 107 99 61 339 59 122 133 125 92 119 134 130 126 137 158 183 185 201 206 194 59 260 225 243 229 223 213 226 233 222 226 243 242 217 216 218 221 219 212
119 117 112 121 115 91 72 134 140 211 125 104 117 119 132 127 117 116 117 149 172 207 204 242 215 184 226 249 239 204 223 232 218 237 222 227 218 229 210 200 208 201 208 194
113 100 95 97 98 105 62 30 59 291 99 91 112 103 148 206 149 125 172 151 174 198 223 145 227 152 226 249 238 239 240 215 213 220 219 225 221 221 195 207 210 186 194 181
113 106 100 77 45 68 110 206 317 76 80 107 131 151 151 182 160 112 164 187 185 97 229 226 218 214 218 235 234 233 224 225 230 209 212 213 225 222 202 199 191 194 189 182
108 73 53 64 75 161 220 18 36 62 74 73 138 112 135 168 151 161 139 191 212 206 211 189 243 250 247 227 243 237 230 205 198 200 199 207 205 211 197 195 194 202 196 183
58 75 70 103 250 64 58 94 152 151 116 107 140 133 140 156 162 140 151 177 171 234 162 223 235 240 223 224 228 230 219 209 201 206 197 202 196 197 187 196 198 206 194 183
129 111 111 138 58 74 105 138 138 180 131 144 144 140 124 142 125 143 176 179 188 236 124 234 259 255 238 223 227 237 220 198 205 198 189 190 193 189 189 194 198 199 189 175
117 70 81 116 115 103 158 157 157 120 139 146 136 133 123 158 143 111 170 182 203 122 206 234 238 262 156 206 201 197 216 203 194 193 188 183 179 179 178 184 183 174 172 158
77 113 101 144 148 190 170 145 144 130 144 146 147 134 124 112 138 147 149 175 151 216 223 233 247 236 210 170 178 182 188 190 185 186 174 165 158 163 151 133 144 148 153 144
78 89 108 145 109 109 121 102 116 137 147 143 139 111 108 109 117 190 146 180 230 224 232 212 263 335 194 193 178 181 172 170 187 177 171 131 142 143 146 149 158 165 123 149
79 90 104 120 114 122 125 142 133 153 136 138 150 132 143 163 153 167 202 195 216 229 214 234 164 190 204 176 178 174 166 172 174 172 160 161 150 161 165 156 163 126 158 162
103 89 109 131 107 146 150 147 154 151 155 154 149 134 171 124 181 209 196 213 225 201 163 166 168 177 174 164 170 151 164 175 171 168 164 160 160 159 150 162 163 169 173 182